This is the latest recevied weather packets stored in our database for station/object KI5MKI. If no packets are shown the sender has not sent any weather packets the latest 10 day(s).
| Time | Temp. | Humidity | Pressure | Rain* | Wind** | Luminosity | Snow |
|---|---|---|---|---|---|---|---|
| 1777226183 | 26.67° C | 73% | 1009.3 hPa | 0 mm | - | 386 W/m² | - |
| 1777225880 | 27.22° C | 73% | 1009.3 hPa | 0 mm | - | 395 W/m² | - |
| 1777225575 | 27.22° C | 73% | 1009.4 hPa | 0 mm | - | 443 W/m² | - |
| 1777225272 | 27.22° C | 71% | 1009.3 hPa | 0 mm | - | 695 W/m² | - |
| 1777224969 | 27.22° C | 72% | 1009.4 hPa | 0 mm | - | 624 W/m² | - |
| 1777224666 | 26.67° C | 72% | 1009.5 hPa | 0 mm | - | 531 W/m² | - |
| 1777224360 | 26.67° C | 73% | 1009.5 hPa | 0 mm | - | 458 W/m² | - |
| 1777224057 | 26.67° C | 73% | 1009.7 hPa | 0 mm | - | 436 W/m² | - |
| 1777223754 | 26.67° C | 74% | 1009.5 hPa | 0 mm | - | 549 W/m² | - |
| 1777223449 | 26.11° C | 74% | 1009.5 hPa | 0 mm | - | 381 W/m² | - |
| 1777223148 | 26.11° C | 73% | 1009.7 hPa | 0 mm | - | 384 W/m² | - |
| 1777222844 | 26.67° C | 75% | 1009.7 hPa | 0 mm | - | 357 W/m² | - |
| 1777222543 | 26.67° C | 73% | 1009.6 hPa | 0 mm | - | 440 W/m² | - |
| 1777222239 | 26.67° C | 71% | 1009.5 hPa | 0 mm | - | 446 W/m² | - |
| 1777221938 | 26.67° C | 72% | 1009.5 hPa | 0 mm | - | 540 W/m² | - |
| 1777221633 | 27.22° C | 72% | 1009.4 hPa | 0 mm | - | 580 W/m² | - |
| 1777221330 | 26.67° C | 73% | 1009.3 hPa | 0 mm | - | 738 W/m² | - |
| 1777221028 | 26.11° C | 75% | 1009.4 hPa | 0 mm | - | 394 W/m² | - |
| 1777220727 | 26.67° C | 75% | 1009.5 hPa | 0 mm | - | 318 W/m² | - |
| 1777220424 | 26.67° C | 76% | 1009.6 hPa | 0 mm | - | 398 W/m² | - |
| 1777220123 | 26.11° C | 76% | 1010 hPa | 0 mm | - | 537 W/m² | - |
| 1777219821 | 26.11° C | 76% | 1009.8 hPa | 0 mm | - | 330 W/m² | - |
| 1777219518 | 26.11° C | 77% | 1010 hPa | 0 mm | - | 302 W/m² | - |
| 1777219215 | 25.56° C | 78% | 1010.1 hPa | 0 mm | - | 534 W/m² | - |
| 1777218915 | 25.56° C | 78% | 1010.2 hPa | 0 mm | - | 361 W/m² | - |
* Rain latest hour (hover to see other rain measurements)
** Current wind speed in m/s (hover to see current wind gust speed)